Location: Antioch Baptist Church
(32.7160°N, 96.7483°W)
Time: 17:44:18
(UTC+00:00)

COSMO-SKYMED 1 - Pass Details

Date: 05 December 2023
Orbit: 621 x 623 km, 97.9° (Epoch: 21 February)

Event Time Altitude Azimuth Distance (km) Brightness Sun altitude
Rises 12:05:25 0° 178° (S) 2,883 6.3 -14.3°
Reaches altitude 10° 12:07:39 10° 183° (S) 1,981 5.3 -13.8°
Maximum altitude 12:11:50 51° 260° (W) 781 2.7 -13.0°
Drops below altitude 10° 12:16:04 10° 337° (NNW) 1,995 4.8 -12.2°
Enters shadow 12:17:20 - 340° (NNW) 2,504 5.3 -11.9°
